MST,Max TemperatureF,Mean TemperatureF,Min TemperatureF,Max Dew PointF,MeanDew PointF,Min DewpointF,Max Humidity, Mean Humidity, Min Humidity, Max Sea Level PressureIn, Mean Sea Level PressureIn, Min Sea Level PressureIn, Max VisibilityMiles, Mean VisibilityMiles, Min VisibilityMiles, Max Wind SpeedMPH, Mean Wind SpeedMPH, Max Gust SpeedMPH,PrecipitationIn, CloudCover, Events, WindDirDegrees
2013-12-1,55,43,30,30,26,23,78,57,35,30.12,29.91,29.67,10,10,10,13,4,17,0.00,3,,256
2013-12-2,53,41,28,35,31,24,89,67,45,29.67,29.58,29.53,10,8,0,20,9,24,0.04,5,Fog-Rain-Snow,18
2013-12-3,29,19,8,28,15,3,92,84,76,30.04,29.78,29.56,10,4,1,33,19,43,0.05,8,Snow,9
2013-12-4,9,5,0,3,-2,-11,80,71,62,30.33,30.03,29.81,10,6,2,43,27,49,T,7,Snow,335
2013-12-5,6,-2,-11,-6,-11,-16,75,67,59,30.57,30.45,30.33,10,10,10,20,6,24,0.00,0,,336
2013-12-6,0,-7,-14,-11,-15,-20,86,73,59,30.75,30.64,30.32,10,10,10,14,7,16,0.00,2,,343
2013-12-7,-5,-9,-14,-11,-15,-20,78,73,68,30.73,30.43,30.02,10,7,2,9,4,12,0.02,7,Snow,93
2013-12-8,5,-2,-9,-5,-11,-16,87,75,62,30.32,30.16,29.89,10,8,2,14,4,16,0.01,4,Snow,351
2013-12-9,28,7,-15,16,2,-14,91,67,42,30.32,30.14,29.92,10,9,2,33,9,41,T,4,Snow,300
2013-12-10,31,13,-5,21,10,-8,88,69,49,30.53,30.17,29.95,10,6,0,32,11,43,0.02,5,Fog-Snow,353
2013-12-11,25,9,-8,15,4,-8,87,74,61,30.53,30.45,30.35,10,10,10,9,3,10,0.00,2,,120
2013-12-12,45,28,10,25,14,4,92,63,33,30.33,30.19,29.93,10,10,10,10,2,13,0.00,0,,11
2013-12-13,31,23,15,20,16,12,92,80,68,30.23,30.07,29.91,10,8,3,16,5,18,0.00,6,,23
2013-12-14,45,29,12,28,22,10,92,69,45,30.28,30.19,30.06,10,10,6,8,2,8,0.00,5,,140
2013-12-15,54,42,29,29,26,21,69,51,32,30.04,29.96,29.90,10,10,10,18,3,22,0.00,3,,243
2013-12-16,40,31,21,30,25,20,100,78,56,30.25,30.11,29.93,10,10,10,23,8,30,0.00,1,,338
2013-12-17,44,33,22,27,23,18,85,67,49,30.38,30.14,29.83,10,10,10,21,9,25,0.00,0,,185
2013-12-18,60,42,24,30,23,19,84,57,30,29.88,29.81,29.73,10,10,10,26,6,31,0.00,1,,3
2013-12-19,28,12,-5,27,10,-9,100,90,79,30.24,29.99,29.82,10,3,0,28,14,30,0.30,7,Fog-Snow,39
2013-12-20,12,2,-8,4,-2,-9,91,81,71,30.22,30.00,29.83,10,9,5,12,3,13,0.00,0,,317
2013-12-21,17,10,2,9,4,0,88,77,66,30.14,29.92,29.75,10,9,2,13,6,15,T,6,Snow,4
2013-12-22,13,6,-2,9,2,-5,95,86,76,30.54,30.24,29.94,10,8,2,18,8,24,T,7,Snow,349
2013-12-23,14,0,-15,9,-5,-17,100,88,75,30.61,30.42,30.09,10,9,4,13,4,14,T,4,,141
2013-12-24,37,24,11,32,25,8,96,82,68,30.27,30.10,29.83,10,8,1,35,13,44,0.11,5,Rain-Snow,331
2013-12-25,35,27,18,23,17,11,84,70,56,30.42,30.29,30.12,10,10,10,15,5,20,0.00,0,,317
2013-12-26,47,32,16,29,22,11,81,63,45,30.26,30.18,30.09,10,10,10,20,5,23,0.00,0,,293
2013-12-27,54,41,28,36,29,22,92,67,41,30.17,30.08,29.86,10,10,10,9,3,9,0.00,0,,111
2013-12-28,47,26,5,28,13,0,92,69,45,30.53,30.13,29.77,10,10,10,49,25,60,0.00,2,,345
2013-12-29,27,15,2,21,8,-1,91,74,57,30.54,30.26,29.87,10,9,2,17,6,21,0.01,5,Snow,151
2013-12-30,37,30,22,27,23,19,92,76,59,30.19,30.09,29.87,10,10,3,36,14,43,T,6,Snow,360
2013-12-31,33,22,10,24,14,7,92,83,73,30.20,30.03,29.84,10,9,2,24,7,29,T,8,Snow,77